Location: Unnamed
(25.0886°N, 121.5256°E)
Time: 00:40:08
(UTC+08:00)

ISS - Visible Passes

Search period start: 09 March 2026 00:00
Search period end: 19 March 2026 00:00
Orbit: 416 x 427 km, 51.6° (Epoch: 8 March)

Date Brightness Start Highest point End Pass type
(mag) Time Alt. Az. Time Alt. Az. Time Alt. Az.
9 Mar -0.3 03:56:33 10° ESE 03:56:33 10° ESE 03:56:37 10° ESE visible
9 Mar -1.7 05:29:37 12° WSW 05:30:10 12° SW 05:31:39 10° SSW visible
9 Mar -3.7 18:50:52 10° SSW 18:54:12 61° SE 18:56:28 19° NE visible
10 Mar -1.2 04:45:44 12° S 04:45:44 12° S 04:46:04 10° S visible
10 Mar -1.0 19:41:54 10° W 19:44:05 16° NW 19:45:27 13° NNW visible
11 Mar -1.8 18:53:57 10° WSW 18:56:56 28° NW 18:59:55 10° NNE visible
